Year,Month,Day,Hour,Minute,Value (Times are PST for temperature in C)
2015,09,14,00,00,10.30
2015,09,14,00,01,10.30
2015,09,14,00,02,10.30
2015,09,14,00,03,10.30
2015,09,14,00,04,10.30
2015,09,14,00,05,10.30
2015,09,14,00,06,10.30
2015,09,14,00,07,10.30
2015,09,14,00,08,10.30
2015,09,14,00,09,10.30
2015,09,14,00,10,10.30
2015,09,14,00,11,10.30
2015,09,14,00,12,10.30
2015,09,14,00,17,10.30
2015,09,14,00,18,10.30
2015,09,14,00,19,10.30
2015,09,14,00,20,10.20
2015,09,14,00,21,10.20
2015,09,14,00,22,10.20
2015,09,14,00,23,10.20
2015,09,14,00,24,10.20
2015,09,14,00,25,10.20
2015,09,14,00,26,10.20
2015,09,14,00,27,10.20
2015,09,14,00,28,10.20
2015,09,14,00,29,10.20
2015,09,14,00,30,10.20
2015,09,14,00,31,10.20
2015,09,14,00,32,10.20
2015,09,14,00,33,10.20
2015,09,14,00,34,10.20
2015,09,14,00,35,10.30
2015,09,14,00,36,10.20
2015,09,14,00,37,10.20
2015,09,14,00,38,10.20
2015,09,14,00,39,10.20
2015,09,14,00,40,10.20
2015,09,14,00,41,10.20
2015,09,14,00,42,10.20
2015,09,14,00,43,10.20
2015,09,14,00,44,10.20
2015,09,14,00,45,10.20
2015,09,14,00,46,10.20
2015,09,14,00,47,10.20
2015,09,14,00,48,10.10
2015,09,14,00,49,10.20
2015,09,14,00,50,10.20
2015,09,14,00,51,10.10
2015,09,14,00,52,10.10
2015,09,14,00,53,10.10
2015,09,14,00,54,10.10
2015,09,14,00,55,10.10
2015,09,14,00,56,10.10
2015,09,14,00,57,10.10
2015,09,14,00,58,10.10
2015,09,14,00,59,10.10
2015,09,14,01,00,10.10
2015,09,14,01,01,10.10
2015,09,14,01,02,10.10
2015,09,14,01,03,10.10
2015,09,14,01,04,10.00
2015,09,14,01,05,10.00
2015,09,14,01,06,10.00
2015,09,14,01,07,10.00
2015,09,14,01,08,10.00
2015,09,14,01,09,9.90
2015,09,14,01,10,9.90
2015,09,14,01,11,9.90
2015,09,14,01,12,9.90
2015,09,14,01,13,9.90
2015,09,14,01,14,9.90
2015,09,14,01,15,9.90
2015,09,14,01,16,9.90
2015,09,14,01,17,9.90
2015,09,14,01,18,9.90
2015,09,14,01,19,9.90
2015,09,14,01,20,9.90
2015,09,14,01,21,9.90
2015,09,14,01,22,9.90
2015,09,14,01,23,9.90
2015,09,14,01,24,9.90
2015,09,14,01,25,9.90
2015,09,14,01,26,9.80
2015,09,14,01,27,9.80
2015,09,14,01,28,9.80
2015,09,14,01,29,9.80
2015,09,14,01,30,9.80
2015,09,14,01,31,9.80
2015,09,14,01,32,9.80
2015,09,14,01,33,9.80
2015,09,14,01,34,9.80
2015,09,14,01,35,9.80
2015,09,14,01,36,9.80
2015,09,14,01,37,9.70
2015,09,14,01,38,9.70
2015,09,14,01,39,9.70
2015,09,14,01,40,9.70
2015,09,14,01,41,9.70
2015,09,14,01,42,9.60
2015,09,14,01,43,9.60
2015,09,14,01,44,9.60
2015,09,14,01,45,9.50
2015,09,14,01,46,9.50
2015,09,14,01,47,9.40
2015,09,14,01,48,9.40
2015,09,14,01,49,9.40
2015,09,14,01,50,9.30
2015,09,14,01,51,9.30
2015,09,14,01,52,9.30
2015,09,14,01,53,9.30
2015,09,14,01,54,9.20
2015,09,14,01,55,9.20
2015,09,14,01,56,9.20
2015,09,14,01,57,9.20
2015,09,14,01,58,9.20
2015,09,14,01,59,9.10
2015,09,14,02,00,9.10
2015,09,14,02,01,9.10
2015,09,14,02,02,9.10
2015,09,14,02,03,9.10
2015,09,14,02,04,9.00
2015,09,14,02,05,9.00
2015,09,14,02,06,9.00
2015,09,14,02,07,9.00
2015,09,14,02,08,8.90
2015,09,14,02,09,8.90
2015,09,14,02,10,8.90
2015,09,14,02,11,8.90
2015,09,14,02,12,8.90
2015,09,14,02,13,8.80
2015,09,14,02,14,8.80
2015,09,14,02,15,8.80
2015,09,14,02,16,8.80
2015,09,14,02,17,8.70
2015,09,14,02,18,8.70
2015,09,14,02,19,8.70
2015,09,14,02,20,8.70
2015,09,14,02,21,8.70
2015,09,14,02,22,8.70
2015,09,14,02,23,8.60
2015,09,14,02,24,8.60
2015,09,14,02,25,8.60
2015,09,14,02,26,8.60
2015,09,14,02,27,8.60
2015,09,14,02,28,8.60
2015,09,14,02,29,8.60
2015,09,14,02,30,8.60
2015,09,14,02,31,8.50
2015,09,14,02,32,8.50
2015,09,14,02,33,8.50
2015,09,14,02,34,8.50
2015,09,14,02,35,8.40
2015,09,14,02,36,8.40
2015,09,14,02,37,8.40
2015,09,14,02,38,8.40
2015,09,14,02,39,8.40
2015,09,14,02,40,8.40
2015,09,14,02,41,8.40
2015,09,14,02,42,8.30
2015,09,14,02,43,8.30
2015,09,14,02,44,8.30
2015,09,14,02,45,8.30
2015,09,14,02,46,8.30
2015,09,14,02,47,8.30
2015,09,14,02,48,8.30
2015,09,14,02,49,8.30
2015,09,14,02,50,8.30
2015,09,14,02,51,8.30
2015,09,14,02,52,8.20
2015,09,14,02,53,8.20
2015,09,14,02,54,8.20
2015,09,14,02,55,8.20
2015,09,14,02,56,8.20
2015,09,14,02,57,8.20
2015,09,14,02,58,8.20
2015,09,14,02,59,8.20
2015,09,14,03,00,8.20
2015,09,14,03,01,8.20
2015,09,14,03,02,8.20
2015,09,14,03,03,8.20
2015,09,14,03,04,8.20
2015,09,14,03,05,8.20
2015,09,14,03,06,8.20
2015,09,14,03,07,8.20
2015,09,14,03,08,8.10
2015,09,14,03,09,8.10
2015,09,14,03,10,8.10
2015,09,14,03,11,8.10
2015,09,14,03,12,8.10
2015,09,14,03,13,8.10
2015,09,14,03,14,8.10
2015,09,14,03,15,8.10
2015,09,14,03,16,8.10
2015,09,14,03,17,8.10
2015,09,14,03,18,8.10
2015,09,14,03,19,8.10
2015,09,14,03,20,8.10
2015,09,14,03,21,8.00
2015,09,14,03,22,8.00
2015,09,14,03,23,8.00
2015,09,14,03,24,8.00
2015,09,14,03,25,8.00
2015,09,14,03,26,8.00
2015,09,14,03,27,8.00
2015,09,14,03,28,8.00
2015,09,14,03,29,7.90
2015,09,14,03,30,7.90
2015,09,14,03,31,7.90
2015,09,14,03,32,7.90
2015,09,14,03,33,7.90
2015,09,14,03,34,7.90
2015,09,14,03,35,7.90
2015,09,14,03,36,7.90
2015,09,14,03,37,7.90
2015,09,14,03,38,7.90
2015,09,14,03,39,7.90
2015,09,14,03,40,7.90
2015,09,14,03,41,7.90
2015,09,14,03,42,7.90
2015,09,14,03,43,7.90
2015,09,14,03,44,7.90
2015,09,14,03,45,7.90
2015,09,14,03,46,8.00
2015,09,14,03,47,8.00
2015,09,14,03,48,8.00
2015,09,14,03,49,8.00
2015,09,14,03,50,8.00
2015,09,14,03,51,8.00
2015,09,14,03,52,8.00
2015,09,14,03,53,8.00
2015,09,14,03,54,8.00
2015,09,14,03,55,8.00
2015,09,14,03,56,8.00
2015,09,14,03,57,8.00
2015,09,14,03,58,8.00
2015,09,14,03,59,8.00
2015,09,14,04,00,8.00
2015,09,14,04,01,8.00
2015,09,14,04,02,8.10
2015,09,14,04,03,8.10
2015,09,14,04,04,8.10
2015,09,14,04,05,8.10
2015,09,14,04,06,8.10
2015,09,14,04,07,8.10
2015,09,14,04,08,8.10
2015,09,14,04,09,8.10
2015,09,14,04,10,8.10
2015,09,14,04,11,8.10
2015,09,14,04,12,8.10
2015,09,14,04,13,8.10
2015,09,14,04,14,8.10
2015,09,14,04,15,8.10
2015,09,14,04,16,8.10
2015,09,14,04,17,8.10
2015,09,14,04,18,8.10
2015,09,14,04,19,8.10
2015,09,14,04,20,8.10
2015,09,14,04,21,8.10
2015,09,14,04,22,8.10
2015,09,14,04,23,8.20
2015,09,14,04,24,8.20
2015,09,14,04,25,8.20
2015,09,14,04,26,8.20
2015,09,14,04,27,8.20
2015,09,14,04,28,8.20
2015,09,14,04,29,8.20
2015,09,14,04,30,8.20
2015,09,14,04,31,8.20
2015,09,14,04,32,8.20
2015,09,14,04,33,8.20
2015,09,14,04,34,8.20
2015,09,14,04,35,8.20
2015,09,14,04,36,8.20
2015,09,14,04,37,8.20
2015,09,14,04,38,8.20
2015,09,14,04,39,8.20
2015,09,14,04,40,8.20
2015,09,14,04,41,8.20
2015,09,14,04,42,8.20
2015,09,14,04,43,8.20
2015,09,14,04,44,8.20
2015,09,14,04,45,8.20
2015,09,14,04,46,8.20
2015,09,14,04,47,8.20
2015,09,14,04,48,8.20
2015,09,14,04,49,8.20
2015,09,14,04,50,8.20
2015,09,14,04,51,8.20
2015,09,14,04,52,8.20
2015,09,14,04,53,8.20
2015,09,14,04,54,8.20
2015,09,14,04,55,8.20
2015,09,14,04,56,8.10
2015,09,14,04,57,8.10
2015,09,14,04,58,8.10
2015,09,14,04,59,8.10
2015,09,14,05,00,8.10
2015,09,14,05,01,8.10
2015,09,14,05,02,8.10
2015,09,14,05,03,8.10
2015,09,14,05,04,8.10
2015,09,14,05,05,8.10
2015,09,14,05,06,8.10
2015,09,14,05,07,8.10
2015,09,14,05,08,8.10
2015,09,14,05,09,8.10
2015,09,14,05,10,8.10
2015,09,14,05,11,8.10
2015,09,14,05,12,8.10
2015,09,14,05,13,8.10
2015,09,14,05,14,8.10
2015,09,14,05,15,8.10
2015,09,14,05,16,8.10
2015,09,14,05,17,8.00
2015,09,14,05,18,8.00
2015,09,14,05,19,8.00
2015,09,14,05,20,8.00
2015,09,14,05,21,8.00
2015,09,14,05,22,8.00
2015,09,14,05,23,8.00
2015,09,14,05,24,8.00
2015,09,14,05,25,7.90
2015,09,14,05,26,8.00
2015,09,14,05,27,7.90
2015,09,14,05,28,7.90
2015,09,14,05,29,8.00
2015,09,14,05,30,7.90
2015,09,14,05,31,7.90
2015,09,14,05,32,7.90
2015,09,14,05,33,7.90
2015,09,14,05,34,7.90
2015,09,14,05,35,7.90
2015,09,14,05,36,7.90
2015,09,14,05,37,7.90
2015,09,14,05,38,7.90
2015,09,14,05,39,7.90
2015,09,14,05,40,7.90
2015,09,14,05,41,7.90
2015,09,14,05,42,7.90
2015,09,14,05,43,7.90
2015,09,14,05,44,7.90
2015,09,14,05,45,7.90
2015,09,14,05,46,7.90
2015,09,14,05,47,7.90
2015,09,14,05,48,7.90
2015,09,14,05,49,7.90
2015,09,14,05,50,7.90
2015,09,14,05,51,7.90
2015,09,14,05,52,7.90
2015,09,14,05,53,7.90
2015,09,14,05,54,7.90
2015,09,14,05,55,7.90
2015,09,14,05,56,7.90
2015,09,14,05,57,7.90
2015,09,14,05,58,7.90
2015,09,14,05,59,7.90
2015,09,14,06,00,7.90
2015,09,14,06,01,7.90
2015,09,14,06,02,7.90
2015,09,14,06,03,7.90
2015,09,14,06,04,7.90
2015,09,14,06,05,7.90
2015,09,14,06,06,7.90
2015,09,14,06,07,7.90
2015,09,14,06,08,7.90
2015,09,14,06,09,7.90
2015,09,14,06,10,7.90
2015,09,14,06,11,7.90
2015,09,14,06,12,7.90
2015,09,14,06,13,7.90
2015,09,14,06,14,7.90
2015,09,14,06,15,7.90
2015,09,14,06,16,7.90
2015,09,14,06,17,7.90
2015,09,14,06,18,7.90
2015,09,14,06,19,7.90
2015,09,14,06,20,8.00
2015,09,14,06,21,8.00
2015,09,14,06,22,8.00
2015,09,14,06,23,8.00
2015,09,14,06,24,8.00
2015,09,14,06,25,8.00
2015,09,14,06,26,8.00
2015,09,14,06,27,8.00
2015,09,14,06,28,8.00
2015,09,14,06,29,8.00
2015,09,14,06,30,8.10
2015,09,14,06,31,8.10
2015,09,14,06,32,8.10
2015,09,14,06,33,8.10
2015,09,14,06,34,8.10
2015,09,14,06,35,8.10
2015,09,14,06,36,8.10
2015,09,14,06,37,8.10
2015,09,14,06,38,8.10
2015,09,14,06,39,8.10
2015,09,14,06,40,8.10
2015,09,14,06,41,8.10
2015,09,14,06,42,8.10
2015,09,14,06,43,8.10
2015,09,14,06,44,8.10
2015,09,14,06,45,8.10
2015,09,14,06,46,8.10
2015,09,14,06,47,8.10
2015,09,14,06,48,8.10
2015,09,14,06,49,8.10
2015,09,14,06,50,8.20
2015,09,14,06,51,8.20
2015,09,14,06,52,8.20
2015,09,14,06,53,8.20
2015,09,14,06,54,8.20
2015,09,14,06,55,8.20
2015,09,14,06,56,8.20
2015,09,14,06,57,8.20
2015,09,14,06,58,8.20
2015,09,14,06,59,8.20
2015,09,14,07,00,8.20
2015,09,14,07,01,8.20
2015,09,14,07,02,8.20
2015,09,14,07,03,8.20
2015,09,14,07,04,8.20
2015,09,14,07,05,8.20
2015,09,14,07,06,8.20
2015,09,14,07,07,8.20
2015,09,14,07,08,8.20
2015,09,14,07,09,8.20
2015,09,14,07,10,8.20
2015,09,14,07,11,8.20
2015,09,14,07,12,8.20
2015,09,14,07,13,8.20
2015,09,14,07,14,8.10
2015,09,14,07,15,8.20
2015,09,14,07,16,8.20
2015,09,14,07,17,8.20
2015,09,14,07,18,8.20
2015,09,14,07,19,8.20
2015,09,14,07,20,8.20
2015,09,14,07,21,8.20
2015,09,14,07,22,8.20
2015,09,14,07,23,8.20
2015,09,14,07,24,8.20
2015,09,14,07,25,8.20
2015,09,14,07,26,8.20
2015,09,14,07,27,8.20
2015,09,14,07,28,8.20
2015,09,14,07,29,8.20
2015,09,14,07,30,8.20
2015,09,14,07,31,8.20
2015,09,14,07,32,8.20
2015,09,14,07,33,8.20
2015,09,14,07,34,8.20
2015,09,14,07,35,8.20
2015,09,14,07,36,8.20
2015,09,14,07,37,8.20
2015,09,14,07,38,8.20
2015,09,14,07,39,8.20
2015,09,14,07,40,8.20
2015,09,14,07,41,8.20
2015,09,14,07,42,8.20
2015,09,14,07,43,8.30
2015,09,14,07,44,8.30
2015,09,14,07,45,8.30
2015,09,14,07,46,8.30
2015,09,14,07,47,8.30
2015,09,14,07,48,8.30
2015,09,14,07,49,8.30
2015,09,14,07,50,8.30
2015,09,14,07,51,8.30
2015,09,14,07,52,8.30
2015,09,14,07,53,8.30
2015,09,14,07,54,8.30
2015,09,14,07,55,8.30
2015,09,14,07,56,8.30
2015,09,14,07,57,8.30
2015,09,14,07,58,8.30
2015,09,14,07,59,8.30
2015,09,14,08,00,8.30
2015,09,14,08,01,8.30
2015,09,14,08,02,8.40
2015,09,14,08,03,8.40
2015,09,14,08,04,8.40
2015,09,14,08,05,8.40
2015,09,14,08,06,8.40
2015,09,14,08,07,8.40
2015,09,14,08,08,8.40
2015,09,14,08,09,8.40
2015,09,14,08,10,8.40
2015,09,14,08,11,8.40
2015,09,14,08,12,8.40
2015,09,14,08,13,8.50
2015,09,14,08,14,8.50
2015,09,14,08,15,8.50
2015,09,14,08,16,8.50
2015,09,14,08,17,8.50
2015,09,14,08,18,8.50
2015,09,14,08,19,8.50
2015,09,14,08,20,8.60
2015,09,14,08,21,8.60
2015,09,14,08,22,8.60
2015,09,14,08,23,8.60
2015,09,14,08,24,8.60
2015,09,14,08,25,8.70
2015,09,14,08,26,8.70
2015,09,14,08,27,8.70
2015,09,14,08,28,8.70
2015,09,14,08,29,8.70
2015,09,14,08,30,8.70
2015,09,14,08,31,8.70
2015,09,14,08,32,8.80
2015,09,14,08,33,8.80
2015,09,14,08,34,8.80
2015,09,14,08,35,8.80
2015,09,14,08,36,8.80
2015,09,14,08,37,8.80
2015,09,14,08,38,8.80
2015,09,14,08,39,8.90
2015,09,14,08,40,8.90
2015,09,14,08,41,8.90
2015,09,14,08,42,8.90
2015,09,14,08,43,9.00
2015,09,14,08,44,9.00
2015,09,14,08,45,9.00
2015,09,14,08,46,9.10
2015,09,14,08,47,9.10
2015,09,14,08,48,9.20
2015,09,14,08,49,9.20
2015,09,14,08,50,9.20
2015,09,14,08,51,9.30
2015,09,14,08,52,9.30
2015,09,14,08,53,9.30
2015,09,14,08,54,9.30
2015,09,14,08,55,9.40
2015,09,14,08,56,9.40
2015,09,14,08,57,9.40
2015,09,14,08,58,9.40
2015,09,14,08,59,9.40
2015,09,14,09,00,9.50
2015,09,14,09,01,9.50
2015,09,14,09,02,9.50
2015,09,14,09,03,9.50
2015,09,14,09,04,9.60
2015,09,14,09,05,9.60
2015,09,14,09,06,9.60
2015,09,14,09,07,9.60
2015,09,14,09,08,9.70
2015,09,14,09,09,9.70
2015,09,14,09,10,9.70
2015,09,14,09,11,9.70
2015,09,14,09,12,9.80
2015,09,14,09,13,9.80
2015,09,14,09,14,9.80
2015,09,14,09,15,9.80
2015,09,14,09,16,9.80
2015,09,14,09,17,9.80
2015,09,14,09,18,9.90
2015,09,14,09,19,9.90
2015,09,14,09,20,9.90
2015,09,14,09,21,9.90
2015,09,14,09,22,9.90
2015,09,14,09,23,9.90
2015,09,14,09,24,10.00
2015,09,14,09,25,10.00
2015,09,14,09,26,10.00
2015,09,14,09,27,10.00
2015,09,14,09,28,10.10
2015,09,14,09,29,10.10
2015,09,14,09,30,10.10
2015,09,14,09,31,10.10
2015,09,14,09,32,10.10
2015,09,14,09,33,10.10
2015,09,14,09,34,10.10
2015,09,14,09,35,10.10
2015,09,14,09,36,10.20
2015,09,14,09,37,10.20
2015,09,14,09,38,10.20
2015,09,14,09,39,10.20
2015,09,14,09,40,10.20
2015,09,14,09,41,10.30
2015,09,14,09,42,10.30
2015,09,14,09,43,10.30
2015,09,14,09,44,10.30
2015,09,14,09,45,10.30
2015,09,14,09,46,10.40
2015,09,14,09,47,10.40
2015,09,14,09,48,10.40
2015,09,14,09,49,10.40
2015,09,14,09,50,10.40
2015,09,14,09,51,10.50
2015,09,14,09,52,10.50
2015,09,14,09,53,10.50
2015,09,14,09,54,10.60
2015,09,14,09,55,10.60
2015,09,14,09,56,10.70
2015,09,14,09,57,10.70
2015,09,14,09,58,10.80
2015,09,14,09,59,10.80
2015,09,14,10,00,10.90
2015,09,14,10,01,10.90
2015,09,14,10,02,10.90
2015,09,14,10,03,11.00
2015,09,14,10,04,11.00
2015,09,14,10,05,11.10
2015,09,14,10,06,11.10
2015,09,14,10,07,11.20
2015,09,14,10,08,11.30
2015,09,14,10,09,11.40
2015,09,14,10,10,11.40
2015,09,14,10,11,11.50
2015,09,14,10,12,11.60
2015,09,14,10,13,11.70
2015,09,14,10,14,11.80
2015,09,14,10,15,11.90
2015,09,14,10,16,12.00
2015,09,14,10,17,12.20
2015,09,14,10,18,12.30
2015,09,14,10,19,12.30
2015,09,14,10,20,12.30
2015,09,14,10,21,12.40
2015,09,14,10,22,12.40
2015,09,14,10,23,12.50
2015,09,14,10,24,12.60
2015,09,14,10,25,12.60
2015,09,14,10,26,12.50
2015,09,14,10,27,12.50
2015,09,14,10,28,12.40
2015,09,14,10,29,12.40
2015,09,14,10,30,12.40
2015,09,14,10,31,12.40
2015,09,14,10,32,12.50
2015,09,14,10,33,12.60
2015,09,14,10,34,12.70
2015,09,14,10,35,12.70
2015,09,14,10,36,12.80
2015,09,14,10,37,12.80
2015,09,14,10,38,12.80
2015,09,14,10,39,12.80
2015,09,14,10,40,12.80
2015,09,14,10,41,12.80
2015,09,14,10,42,12.80
2015,09,14,10,43,12.90
2015,09,14,10,44,12.90
2015,09,14,10,45,13.00
2015,09,14,10,46,13.00
2015,09,14,10,47,13.00
2015,09,14,10,48,13.10
2015,09,14,10,49,13.10
2015,09,14,10,50,13.10
2015,09,14,10,51,13.20
2015,09,14,10,52,13.30
2015,09,14,10,53,13.40
2015,09,14,10,54,13.50
2015,09,14,10,55,13.60
2015,09,14,10,56,13.70
2015,09,14,10,57,13.80
2015,09,14,10,58,13.80
2015,09,14,10,59,13.90
2015,09,14,11,00,14.00
2015,09,14,11,01,14.10
2015,09,14,11,02,14.20
2015,09,14,11,03,14.20
2015,09,14,11,04,14.30
2015,09,14,11,05,14.30
2015,09,14,11,06,14.40
2015,09,14,11,07,14.50
2015,09,14,11,08,14.50
2015,09,14,11,09,14.60
2015,09,14,11,10,14.60
2015,09,14,11,11,14.50
2015,09,14,11,12,14.40
2015,09,14,11,13,14.40
2015,09,14,11,14,14.30
2015,09,14,11,15,14.30
2015,09,14,11,16,14.30
2015,09,14,11,17,14.40
2015,09,14,11,18,14.40
2015,09,14,11,19,14.50
2015,09,14,11,20,14.50
2015,09,14,11,21,14.60
2015,09,14,11,22,14.60
2015,09,14,11,23,14.60
2015,09,14,11,24,14.60
2015,09,14,11,25,14.70
2015,09,14,11,26,14.70
2015,09,14,11,27,14.70
2015,09,14,11,28,14.70
2015,09,14,11,29,14.80
2015,09,14,11,30,14.80
2015,09,14,11,31,14.90
2015,09,14,11,32,15.00
2015,09,14,11,33,15.10
2015,09,14,11,34,15.10
2015,09,14,11,35,15.20
2015,09,14,11,36,15.10
2015,09,14,11,37,14.80
2015,09,14,11,38,14.70
2015,09,14,11,39,14.70
2015,09,14,11,40,14.70
2015,09,14,11,41,14.70
2015,09,14,11,42,14.70
2015,09,14,11,43,14.70
2015,09,14,11,44,14.70
2015,09,14,11,45,14.80
2015,09,14,11,46,14.90
2015,09,14,11,47,15.00
2015,09,14,11,48,15.20
2015,09,14,11,49,15.30
2015,09,14,11,50,15.40
2015,09,14,11,51,15.50
2015,09,14,11,52,15.60
2015,09,14,11,53,15.60
2015,09,14,11,54,15.60
2015,09,14,11,55,15.70
2015,09,14,11,56,15.60
2015,09,14,11,57,15.50
2015,09,14,11,58,15.50
2015,09,14,11,59,15.50
2015,09,14,12,00,15.60
2015,09,14,12,01,15.70
2015,09,14,12,02,15.70
2015,09,14,12,03,15.80
2015,09,14,12,04,15.80
2015,09,14,12,05,15.60
2015,09,14,12,06,15.50
2015,09,14,12,07,15.40
2015,09,14,12,08,15.40
2015,09,14,12,09,15.40
2015,09,14,12,10,15.50
2015,09,14,12,11,15.50
2015,09,14,12,12,15.60
2015,09,14,12,13,15.60
2015,09,14,12,14,15.50
2015,09,14,12,15,15.50
2015,09,14,12,16,15.40
2015,09,14,12,17,15.40
2015,09,14,12,18,15.40
2015,09,14,12,19,15.40
2015,09,14,12,20,15.40
2015,09,14,12,21,15.40
2015,09,14,12,22,15.40
2015,09,14,12,23,15.40
2015,09,14,12,24,15.50
2015,09,14,12,25,15.60
2015,09,14,12,26,15.60
2015,09,14,12,27,15.70
2015,09,14,12,28,15.80
2015,09,14,12,29,15.90
2015,09,14,12,30,15.90
2015,09,14,12,31,16.00
2015,09,14,12,32,16.10
2015,09,14,12,33,16.30
2015,09,14,12,34,16.40
2015,09,14,12,35,16.40
2015,09,14,12,36,16.30
2015,09,14,12,37,16.20
2015,09,14,12,38,16.10
2015,09,14,12,39,16.10
2015,09,14,12,40,16.00
2015,09,14,12,41,15.90
2015,09,14,12,42,15.70
2015,09,14,12,43,15.50
2015,09,14,12,44,15.40
2015,09,14,12,45,15.40
2015,09,14,12,46,15.30
2015,09,14,12,47,15.40
2015,09,14,12,48,15.40
2015,09,14,12,49,15.50
2015,09,14,12,50,15.50
2015,09,14,12,51,15.60
2015,09,14,12,52,15.60
2015,09,14,12,53,15.60
2015,09,14,12,54,15.60
2015,09,14,12,55,15.60
2015,09,14,12,56,15.60
2015,09,14,12,57,15.60
2015,09,14,12,58,15.60
2015,09,14,12,59,15.60
2015,09,14,13,00,15.70
2015,09,14,13,01,15.70
2015,09,14,13,02,15.70
2015,09,14,13,03,15.70
2015,09,14,13,04,15.70
2015,09,14,13,05,15.70
2015,09,14,13,06,15.70
2015,09,14,13,07,15.70
2015,09,14,13,08,15.80
2015,09,14,13,09,15.80
2015,09,14,13,10,15.80
2015,09,14,13,11,15.70
2015,09,14,13,12,15.60
2015,09,14,13,13,15.60
2015,09,14,13,14,15.60
2015,09,14,13,15,15.50
2015,09,14,13,16,15.50
2015,09,14,13,17,15.60
2015,09,14,13,18,15.70
2015,09,14,13,19,15.80
2015,09,14,13,20,15.80
2015,09,14,13,21,15.80
2015,09,14,13,22,15.90
2015,09,14,13,23,15.90
2015,09,14,13,24,15.80
2015,09,14,13,25,15.90
2015,09,14,13,26,15.90
2015,09,14,13,27,15.90
2015,09,14,13,28,15.90
2015,09,14,13,29,15.90
2015,09,14,13,30,16.00
2015,09,14,13,31,16.10
2015,09,14,13,32,16.20
2015,09,14,13,33,16.30
2015,09,14,13,34,16.30
2015,09,14,13,35,16.30
2015,09,14,13,36,16.30
2015,09,14,13,37,16.20
2015,09,14,13,38,16.10
2015,09,14,13,39,16.10
2015,09,14,13,40,16.20
2015,09,14,13,41,16.30
2015,09,14,13,42,16.40
2015,09,14,13,43,16.50
2015,09,14,13,44,16.50
2015,09,14,13,45,16.50
2015,09,14,13,46,16.50
2015,09,14,13,47,16.60
2015,09,14,13,48,16.70
2015,09,14,13,49,16.90
2015,09,14,13,50,17.10
2015,09,14,13,51,17.20
2015,09,14,13,52,17.20
2015,09,14,13,53,17.00
2015,09,14,13,54,17.00
2015,09,14,13,55,16.90
2015,09,14,13,56,16.90
2015,09,14,13,57,16.90
2015,09,14,13,58,17.00
2015,09,14,13,59,17.10
2015,09,14,14,00,17.10
2015,09,14,14,01,17.20
2015,09,14,14,02,17.30
2015,09,14,14,03,17.30
2015,09,14,14,04,17.20
2015,09,14,14,05,17.20
2015,09,14,14,06,17.20
2015,09,14,14,07,17.30
2015,09,14,14,08,17.30
2015,09,14,14,09,17.20
2015,09,14,14,10,17.10
2015,09,14,14,11,17.00
2015,09,14,14,12,16.90
2015,09,14,14,13,16.80
2015,09,14,14,14,16.90
2015,09,14,14,15,16.90
2015,09,14,14,16,16.90
2015,09,14,14,17,16.90
2015,09,14,14,18,16.90
2015,09,14,14,19,17.00
2015,09,14,14,20,17.00
2015,09,14,14,21,17.00
2015,09,14,14,22,17.10
2015,09,14,14,23,17.10
2015,09,14,14,24,17.00
2015,09,14,14,25,16.90
2015,09,14,14,26,16.70
2015,09,14,14,27,16.70
2015,09,14,14,28,16.80
2015,09,14,14,29,16.80
2015,09,14,14,30,16.90
2015,09,14,14,31,16.90
2015,09,14,14,32,16.90
2015,09,14,14,33,17.00
2015,09,14,14,34,17.00
2015,09,14,14,35,16.90
2015,09,14,14,36,16.80
2015,09,14,14,37,16.80
2015,09,14,14,38,16.80
2015,09,14,14,39,16.90
2015,09,14,14,40,16.90
2015,09,14,14,41,16.90
2015,09,14,14,42,16.90
2015,09,14,14,43,16.80
2015,09,14,14,44,16.80
2015,09,14,14,45,16.70
2015,09,14,14,46,16.70
2015,09,14,14,47,16.70
2015,09,14,14,48,16.80
2015,09,14,14,49,16.80
2015,09,14,14,50,16.90
2015,09,14,14,51,17.00
2015,09,14,14,52,17.10
2015,09,14,14,53,17.10
2015,09,14,14,54,17.20
2015,09,14,14,55,17.20
2015,09,14,14,56,17.20
2015,09,14,14,57,17.20
2015,09,14,14,58,17.20
2015,09,14,14,59,17.20
2015,09,14,15,00,17.10
2015,09,14,15,01,17.10
2015,09,14,15,02,17.10
2015,09,14,15,03,17.10
2015,09,14,15,04,17.10
2015,09,14,15,05,17.10
2015,09,14,15,06,17.00
2015,09,14,15,07,17.00
2015,09,14,15,08,16.80
2015,09,14,15,09,16.60
2015,09,14,15,10,16.50
2015,09,14,15,11,16.40
2015,09,14,15,12,16.30
2015,09,14,15,13,16.30
2015,09,14,15,14,16.30
2015,09,14,15,15,16.30
2015,09,14,15,16,16.30
2015,09,14,15,17,16.40
2015,09,14,15,18,16.50
2015,09,14,15,19,16.50
2015,09,14,15,20,16.40
2015,09,14,15,21,16.40
2015,09,14,15,22,16.30
2015,09,14,15,23,16.40
2015,09,14,15,24,16.30
2015,09,14,15,25,16.30
2015,09,14,15,26,16.40
2015,09,14,15,27,16.30
2015,09,14,15,28,16.30
2015,09,14,15,29,16.30
2015,09,14,15,30,16.20
2015,09,14,15,31,16.20
2015,09,14,15,32,16.20
2015,09,14,15,33,16.20
2015,09,14,15,34,16.20
2015,09,14,15,35,16.10
2015,09,14,15,36,16.00
2015,09,14,15,37,15.90
2015,09,14,15,38,15.90
2015,09,14,15,39,15.80
2015,09,14,15,40,15.80
2015,09,14,15,41,15.80
2015,09,14,15,42,15.80
2015,09,14,15,43,15.80
2015,09,14,15,44,15.80
2015,09,14,15,45,15.70
2015,09,14,15,46,15.70
2015,09,14,15,47,15.70
2015,09,14,15,48,15.70
2015,09,14,15,49,15.80
2015,09,14,15,50,15.70
2015,09,14,15,51,15.70
2015,09,14,15,52,15.70
2015,09,14,15,53,15.70
2015,09,14,15,54,15.60
2015,09,14,15,55,15.60
2015,09,14,15,56,15.50
2015,09,14,15,57,15.50
2015,09,14,15,58,15.50
2015,09,14,15,59,15.40
2015,09,14,16,00,15.40
2015,09,14,16,01,15.30
2015,09,14,16,02,15.30
2015,09,14,16,03,15.30
2015,09,14,16,04,15.30
2015,09,14,16,05,15.30
2015,09,14,16,06,15.30
2015,09,14,16,07,15.30
2015,09,14,16,08,15.40
2015,09,14,16,09,15.50
2015,09,14,16,10,15.60
2015,09,14,16,11,15.70
2015,09,14,16,12,15.80
2015,09,14,16,13,15.80
2015,09,14,16,14,15.80
2015,09,14,16,15,15.90
2015,09,14,16,16,15.90
2015,09,14,16,17,15.90
2015,09,14,16,18,16.00
2015,09,14,16,19,16.00
2015,09,14,16,20,15.90
2015,09,14,16,21,15.90
2015,09,14,16,22,16.00
2015,09,14,16,23,16.00
2015,09,14,16,24,16.00
2015,09,14,16,25,16.00
2015,09,14,16,26,16.00
2015,09,14,16,27,16.10
2015,09,14,16,28,16.10
2015,09,14,16,29,16.10
2015,09,14,16,30,16.20
2015,09,14,16,31,16.20
2015,09,14,16,32,16.20
2015,09,14,16,33,16.10
2015,09,14,16,34,16.00
2015,09,14,16,35,15.80
2015,09,14,16,36,15.70
2015,09,14,16,37,15.60
2015,09,14,16,38,15.50
2015,09,14,16,39,15.30
2015,09,14,16,40,15.30
2015,09,14,16,41,15.20
2015,09,14,16,42,15.10
2015,09,14,16,43,15.10
2015,09,14,16,44,15.00
2015,09,14,16,45,15.00
2015,09,14,16,46,15.00
2015,09,14,16,47,15.00
2015,09,14,16,48,15.10
2015,09,14,16,49,15.10
2015,09,14,16,50,15.20
2015,09,14,16,51,15.20
2015,09,14,16,52,15.20
2015,09,14,16,53,15.30
2015,09,14,16,54,15.30
2015,09,14,16,55,15.30
2015,09,14,16,56,15.40
2015,09,14,16,57,15.40
2015,09,14,16,58,15.40
2015,09,14,16,59,15.50
2015,09,14,17,00,15.50
2015,09,14,17,01,15.60
2015,09,14,17,02,15.70
2015,09,14,17,03,15.70
2015,09,14,17,04,15.80
2015,09,14,17,05,15.80
2015,09,14,17,06,15.80
2015,09,14,17,07,15.80
2015,09,14,17,08,15.80
2015,09,14,17,09,15.70
2015,09,14,17,10,15.70
2015,09,14,17,11,15.50
2015,09,14,17,12,15.50
2015,09,14,17,13,15.40
2015,09,14,17,14,15.30
2015,09,14,17,15,15.30
2015,09,14,17,16,15.30
2015,09,14,17,17,15.30
2015,09,14,17,18,15.30
2015,09,14,17,19,15.30
2015,09,14,17,20,15.40
2015,09,14,17,21,15.30
2015,09,14,17,22,15.30
2015,09,14,17,23,15.20
2015,09,14,17,24,15.20
2015,09,14,17,25,15.20
2015,09,14,17,26,15.10
2015,09,14,17,27,15.00
2015,09,14,17,28,14.90
2015,09,14,17,29,14.90
2015,09,14,17,30,14.80
2015,09,14,17,31,14.70
2015,09,14,17,32,14.60
2015,09,14,17,33,14.60
2015,09,14,17,34,14.50
2015,09,14,17,35,14.40
2015,09,14,17,36,14.40
2015,09,14,17,37,14.40
2015,09,14,17,38,14.30
2015,09,14,17,39,14.40
2015,09,14,17,40,14.40
2015,09,14,17,41,14.50
2015,09,14,17,42,14.60
2015,09,14,17,43,14.60
2015,09,14,17,44,14.60